SCOUT A DEB, 2702

Orbit data source: Space-Track

SCOUT A DEB, 2702 is space debris in LEO originally from a launch on Thu, 18 Aug 1966 UTC launched from the Air Force Western Test Range (AFWTR). Debris objects in space refer to the collection of defunct objects orbiting the Earth. Examples of debris include non-operational satellites, rocket bodies, and fragments generated from explosions, collisions, or faulty payload assembly.

Loading next visibility...
Identifier
2702, 1966-076D
Orbit
LEO
Country
Flag of USUS
Related business
Manufacturer
Unknown
Mission
Spacecraft
Bus & Motor
Unknown
Mass
Unknown
Launch date (UTC)
1966-08-18 (59 years ago)
Launch vehicle
Unknown
Launch site
Air Force Western Test Range (AFWTR)
Object type
Payload
Rocket body
Debris
Shape & HBR
Unknown shape, 0.1 m
Radar Cross Section
Small (<0.1 m²)

Expand to show TLE details & history
Last TLE update: 1 day ago

TLE from 1 day ago
0 SCOUT A DEB
1 02702U 66076D   26034.13217553  .00000126  00000-0  21706-3 0  9996
2 02702  88.5609 276.8728 0086794 294.2369 219.5515 13.36533410878424
Epoch: 2026-02-03T03:10Z
TLE epoch observation values (Epoch: 2026-02-03T03:10:19.965Z)
Latitude
26.86411°
Longitude
-84.75333°
Altitude
1,175.964 km
Speed
7.243 km/s
True Right ascension
06h 24m 35s
True Declination
26° 44' 00"
Sunlit
Object was in full shadow at epoch
Visualization orbit readout
Latitude
Unknown
Longitude
Unknown
Altitude
Unknown
Speed
Unknown
Apparent Right ascension
Unknown
Apparent Declination
Unknown
Sunlit
N/A
Visualization observer readout
Local Sidereal Time
16:01:38
Azimuth
Unknown
Elevation
Unknown
Doppler factor
Unknown
Orbital elements
Apogee altitude
1,184.368 km
Perigee altitude
1,054.222 km
Semi-major axis
7,497.432 km
Eccentricity
0.00868
Inclination
88.5609°
RAAN
276.8728°
Arg. of periapsis
294.2369°
True anomaly
218.92344°
Mean anomaly
219.5515°
Eccentric anomaly
219.23695°
Mean motion
3.34329 °/min
Orbital period
107.68 mins
BSTAR
0.00021706
Loading maneuver chart data...
Computing Atmospheric mass density...
Loading historical data...
Loading historical data...
Loading historical data...
Loading historical data...
Loading historical data...
Loading historical data...
Loading historical data...

Documentation

Showing up to 5 results
|